KB3WYD Weather Reports


Display with metric or nautical units.
time (UTC)temp
F
wind
direction
speed
MPH
gust
MPH
rain 1hr
in
rain 24hr
in
rain mn
in
humidity
%
barometer
mb
20210621130008 78 200 1.0 7.0 0.00 0.00 0.00 88 1006.5
20210621124620 77 177 2.0 5.0 0.00 0.01 0.00 89 1006.5
20210621123115 76 201 1.0 5.0 0.00 0.01 0.00 91 1006.4
20210621121706 75 210 1.0 7.0 0.00 0.01 0.00 92 1006.5
20210621120205 75 190 1.0 4.0 0.00 0.01 0.00 93 1006.7
20210621114613 74 192 1.0 8.0 0.00 0.01 0.00 93 1006.7
20210621113135 74 186 0.0 0.0 0.00 0.01 0.00 94 1006.8
20210621111617 74 187 1.0 8.0 0.00 0.01 0.00 94 1006.8
20210621110058 74 188 2.0 5.0 0.00 0.01 0.00 94 1006.9
20210621104620 74 186 0.0 6.0 0.00 0.01 0.00 94 1006.8
20210621103120 74 184 0.0 3.0 0.00 0.01 0.00 94 1006.5
20210621101554 73 189 0.0 4.0 0.00 0.01 0.00 94 1006.5
20210621100101 73 194 0.0 3.0 0.00 0.01 0.00 95 1006.8
20210621094558 73 190 0.0 2.0 0.00 0.01 0.00 94 1006.6
20210621093043 73 186 0.0 4.0 0.00 0.01 0.00 94 1006.6
20210621091616 73 172 0.0 5.0 0.00 0.01 0.00 94 1006.5
20210621090111 73 172 0.0 0.0 0.00 0.01 0.00 94 1006.4
20210621084639 73 171 0.0 4.0 0.00 0.01 0.00 93 1006.2
20210621083103 73 164 0.0 4.0 0.00 0.01 0.00 93 1006.2
20210621081604 73 175 0.0 0.0 0.00 0.01 0.00 92 1006.3
20210621080054 73 175 0.0 0.0 0.00 0.01 0.00 92 1006.4
20210621074558 73 175 0.0 0.0 0.00 0.01 0.00 91 1006.3
20210621073101 74 175 0.0 0.0 0.00 0.01 0.00 91 1006.4
20210621071608 74 175 0.0 0.0 0.00 0.01 0.00 91 1006.5
20210621070053 74 175 0.0 6.0 0.00 0.01 0.00 91 1006.4
20210621064546 74 182 0.0 3.0 0.00 0.01 0.00 90 1006.5
20210621063045 75 168 0.0 5.0 0.00 0.01 0.00 90 1006.6
20210621061551 75 146 1.0 9.0 0.00 0.01 0.00 90 1006.6
20210621060057 75 202 0.0 7.0 0.00 0.01 0.00 90 1006.7
20210621054531 75 194 0.0 4.0 0.00 0.01 0.00 90 1006.7
20210621053024 75 209 0.0 5.0 0.00 0.01 0.00 90 1006.6
20210621051529 75 186 1.0 5.0 0.00 0.01 0.00 91 1006.6
20210621050027 75 205 1.0 8.0 0.00 0.01 0.00 91 1006.6
20210621044525 76 173 0.0 4.0 0.00 0.01 0.00 91 1006.9
20210621043023 76 155 0.0 5.0 0.00 0.01 0.00 90 1007.0
20210621041533 76 186 0.0 5.0 0.00 0.01 0.00 90 1007.2
20210621040014 76 134 0.0 4.0 0.00 0.01 0.00 89 1007.7
20210621034517 77 148 0.0 3.0 0.00 0.01 0.01 88 1007.8
20210621033006 77 159 0.0 0.0 0.00 0.01 0.01 87 1007.9
20210621031518 78 161 0.0 7.0 0.00 0.01 0.01 87 1007.8
20210621030005 78 157 0.0 7.0 0.00 0.01 0.01 86 1007.9
20210621024505 78 226 0.0 4.0 0.00 0.01 0.01 86 1007.9
20210621023025 78 185 0.0 6.0 0.00 0.01 0.01 85 1007.9
20210621021504 79 161 0.0 0.0 0.00 0.01 0.01 85 1007.7
20210621020003 79 110 0.0 4.0 0.00 0.01 0.01 84 1007.6
20210621014502 79 210 0.0 6.0 0.00 0.03 0.01 83 1007.8
20210621013006 80 151 0.0 5.0 0.00 0.03 0.01 81 1007.8
20210621011501 80 179 0.0 6.0 0.00 0.03 0.01 80 1007.8
20210621010312 81 170 1.0 9.0 0.00 0.03 0.01 79 1007.5
20210621004631 81 156 2.0 13.0 0.00 0.04 0.01 77 1007.5
20210621003145 81 190 5.0 17.0 0.00 0.04 0.01 76 1007.2
20210621001654 82 169 2.0 10.0 0.00 0.04 0.01 75 1007.6
20210621000132 82 163 2.0 9.0 0.00 0.04 0.01 75 1007.8
20210620234635 82 137 3.0 11.0 0.00 0.04 0.01 74 1007.8
20210620233142 83 165 4.0 10.0 0.00 0.04 0.01 73 1007.6
20210620231625 83 134 2.0 10.0 0.00 0.04 0.01 72 1007.5
20210620230113 83 188 2.0 15.0 0.00 0.04 0.01 72 1007.5
20210620224649 84 159 5.0 16.0 0.00 0.04 0.01 71 1007.6
20210620223144 84 189 1.0 14.0 0.00 0.04 0.01 71 1007.6
20210620221655 84 138 2.0 15.0 0.00 0.04 0.01 70 1007.5
20210620220204 85 85 3.0 11.0 0.00 0.04 0.01 69 1007.3
20210620214744 86 182 4.0 13.0 0.00 0.04 0.01 68 1007.5
20210620213143 86 162 3.0 11.0 0.00 0.04 0.01 67 1007.2
20210620211635 86 171 3.0 11.0 0.00 0.04 0.01 67 1007.5
20210620210106 86 174 3.0 11.0 0.00 0.04 0.01 68 1007.6
20210620204645 86 160 5.0 15.0 0.00 0.04 0.01 66 1007.8
20210620203105 86 150 2.0 12.0 0.00 0.04 0.01 66 1007.8
20210620201638 86 138 3.0 12.0 0.00 0.04 0.01 66 1007.8
20210620200155 86 160 4.0 10.0 0.00 0.04 0.01 66 1008.0
20210620194617 87 134 2.0 12.0 0.00 0.04 0.01 65 1008.2
20210620193206 87 123 2.0 10.0 0.00 0.04 0.01 68 1008.3
20210620191558 86 152 4.0 15.0 0.00 0.04 0.01 69 1008.2
20210620190104 86 151 5.0 14.0 0.00 0.04 0.01 66 1008.2
20210620184626 87 153 3.0 9.0 0.00 0.04 0.01 67 1008.1
20210620183224 87 132 3.0 9.0 0.00 0.04 0.01 65 1008.1
20210620181644 86 133 3.0 9.0 0.00 0.04 0.01 66 1008.3
20210620180131 87 214 1.0 9.0 0.00 0.04 0.01 66 1008.3
20210620174640 87 146 2.0 10.0 0.00 0.04 0.01 64 1008.6
20210620173119 86 119 2.0 7.0 0.00 0.04 0.01 64 1008.7
20210620171608 86 143 3.0 8.0 0.00 0.04 0.01 67 1009.0
20210620170048 86 144 4.0 9.0 0.00 0.04 0.01 68 1009.1
20210620164536 86 121 2.0 8.0 0.00 0.04 0.01 70 1009.6
20210620161521 85 167 2.0 6.0 0.00 0.04 0.01 71 1009.9
20210620160017 85 119 0.0 3.0 0.00 0.04 0.01 71 1009.8
20210620154523 84 188 0.0 4.0 0.00 0.04 0.01 71 1009.8
20210620153017 83 154 2.0 7.0 0.00 0.04 0.01 72 1009.9
20210620151509 83 158 1.0 4.0 0.00 0.04 0.01 73 1009.8
20210620150014 81 178 2.0 4.0 0.00 0.04 0.01 75 1009.9
20210620144642 80 172 0.0 4.0 0.00 0.04 0.01 77 1009.8
20210620143120 80 174 0.0 5.0 0.00 0.04 0.01 77 1010.1
20210620141700 79 194 0.0 4.0 0.00 0.04 0.01 80 1010.3
20210620140320 79 189 1.0 7.0 0.00 0.04 0.01 80 1010.3
20210620134627 79 193 2.0 8.0 0.00 0.04 0.01 81 1010.4
20210620133120 78 175 0.0 1.0 0.00 0.04 0.01 86 1010.8
20210620131651 77 186 2.0 5.0 0.01 0.04 0.01 88 1010.9